Weather in Gazoprovod

Russia / Kaluga Oblast     54°26′21″N   35°35′17″E
temp.,
°C
wind,
m/s
gust,
m/s
humid.,
%
clouds,
%
prec.,
mm/h
press.,
hPa
HPBL,
m
18 april, sun
sun1800:00+8ne2895100 1.5 1017389
03:00+7e2690100 1.9 1016543
06:00+6ese2593100 3.4 1018671
09:00+6ene4488100 4.6 1019466
12:00+8ne4580100 0.2 1019832
15:00+8ne6679100 0.4 1020811
18:00+7ne5785100 0.1 1020786
21:00+6ne489092 0.3 1021561
19 april, mon
mon1900:00+5nne4994100 0.1 1021466
03:00+5ne499498 0.1 1021515
06:00+5ne5109486 0.0 1021512
09:00+6ne5892100 0.1 1021853
12:00+6ne6990100 0.3 1021886
15:00+4ne6996100 0.5 1022880
18:00+3ne61296100 0.5 1022761
21:00+2ne61397100 1.3 1022690
20 april, tue
tue2000:00+2ene51297100 2.4 1021586
03:00+3ene51197100 2.6 1020615
06:00+2ene51097100 0.4 1018447
09:00+3ene51097100 0.5 1018419
12:00+7e61192100 0.0 1017666
15:00+6ene71293100 0.9 1015695
18:00+6ene81491100 0.7 1012851
21:00+4ene81597100 4.1 1009982
21 april, wed
wed2100:00+2ne81797100 9.8 10041018
03:00+5ene81595100 14.4 998851
06:00+7e91696100 3.3 996705
09:00+3se81593100 3.8 996648
12:00+2ssw91496100 0.3 998731
15:00+3sw91596100 0.4 1002866
18:00+3sw91596100 0.3 1006853
21:00+3sw81397100 0.4 1010922
22 april, thu
thu2200:00+4wsw71397100 0.3 1013810
03:00+4ssw51193100 0.3 1015368
06:00+3ssw499396 0.0 1017226
09:00+7ssw467756 0.0 1018400
12:00+12sw56655 0.4 10191159
15:00+13sw455972 1.6 10191327
18:00+12ssw346971 1.1 1020397
21:00+8s228563 1.4 102225